Tracking 30995 objects as of 5-Jul-2025
HD Live streaming from Space Station
objects crossing your sky now

STARLINK-30806

Track STARLINK-30806 now!
10-day predictions
STARLINK-30806 is classified as:


NORAD ID: 58180
Int'l Code: 2023-167F
Perigee: 565.4 km
Apogee: 567.0 km
Inclination: 43.0 °
Period: 95.8 minutes
Semi major axis: 6937 km
RCS: Unknown
Launch date: October 30, 2023
Source: United States (US)
Launch site: AIR FORCE EASTERN TEST RANGE (AFETR)
Your satellite tracking list
Your tracking list is empty




NASA's NSSDC Master Catalog

Two Line Element Set (TLE):
1 58180U 23167F   25186.05598883 -.00000044  00000-0  11799-4 0  9999
2 58180  43.0043  51.5878 0001147 266.5347  93.5364 15.02532645 93654
Source of the keplerian elements: AFSPC